Location: Acheville
(50.3840°N, 2.8827°E)
Time: 01:17:42
(UTC+00:00)

FENGYUN 1C DEB - Pass Details

Date: 04 February 2023
Orbit: 634 x 940 km, 98.3° (Epoch: 28 March)

Event Time Altitude Azimuth Distance (km) Brightness Sun altitude
Rises 06:19:01 0° 17° (NNE) 2,951 ? -9.9°
Reaches altitude 10° 06:21:15 10° 21° (NNE) 2,033 ? -9.5°
Maximum altitude 06:25:35 61° 102° (ESE) 728 ? -8.9°
Drops below altitude 10° 06:30:00 10° 183° (S) 2,065 ? -8.2°
Sets 06:32:16 0° 187° (S) 3,002 ? -7.8°
